Andover, NJ

8:29 AM EDT on October 24, 2017 (GMT -0400)
Andover

Weather History for K12N - July, 2013

Change the Weather History Date:

Thursday, July 11, 2013

  Actual Average (KFWN) Record (KFWN)
Temperature  
Mean Temperature 75 °F -  
Max Temperature 84 °F 84 °F 100 °F (1988)
Min Temperature 66 °F 58 °F 44 °F (1983)
Cooling Degree Days 10    
Growing Degree Days 25 (Base 50)    
Moisture  
Dew Point 66 °F    
Average Humidity 75    
Maximum Humidity 93    
Minimum Humidity 51    
Precipitation  
Precipitation 0.00 in - - ()
Sea Level Pressure  
Sea Level Pressure 29.87 in    
Wind  
Wind Speed 1 mph (North)    
Max Wind Speed 5 mph    
Max Gust Speed -    
Averages and records for this station are not official NWS values.
T = Trace of Precipitation, MM = Missing Value Source: NWS Daily Summary

Daily Weather History Graph

Daily Weather History Graph

Search for Another Location

Airport or City:

Trip Planner

Search our weather history database for the weather conditions in past years. The results will help you decide how hot, cold, wet, or windy it might be!

Date:

Astronomy

Jul. 11, 2013 Rise Set
Actual Time 5:36 AM EDT 8:31 PM EDT
Civil Twilight 5:04 AM EDT 9:04 PM EDT
Nautical Twilight 4:22 AM EDT 9:46 PM EDT
Astronomical Twilight 3:34 AM EDT 10:34 PM EDT
Moon 8:54 AM EDT (7/11) 10:08 PM EDT (7/11)
Length of Visible Light 16h 00m
Length of Day
14h 54m
Waxing Crescent, 10% of the Moon is Illuminated
Jul 11
Waxing Crescent
Jul 15
First Quarter
Jul 22
Full
Jul 29
Last Quarter
Aug 6
New

Hourly Weather History & Observations

Time (EDT) Temp. Heat Index Dew Point Humidity Pressure Visibility Wind Dir Wind Speed Gust Speed Precip Events Conditions
12:54 AM 75.9 °F - 72.0 °F 87% 29.82 in - South 3.5 mph - N/A   Unknown
1:54 AM 75.0 °F - 72.0 °F 90% 29.81 in - Calm Calm - N/A   Unknown
2:54 AM 73.9 °F - 71.1 °F 91% 29.81 in - Calm Calm - N/A   Unknown
3:54 AM 73.0 °F - 71.1 °F 93% 29.81 in - Calm Calm - N/A   Unknown
4:54 AM 73.0 °F - 71.1 °F 93% 29.82 in - Calm Calm - N/A   Unknown
5:54 AM 73.0 °F - 70.0 °F 90% 29.83 in - Calm Calm - N/A   Unknown
6:54 AM 73.9 °F - 68.0 °F 82% 29.85 in - Calm Calm - N/A   Unknown
7:54 AM 73.0 °F - 69.1 °F 87% 29.86 in - Calm Calm - N/A   Unknown
8:54 AM 73.9 °F - 66.0 °F 76% 29.87 in - North 3.5 mph - N/A   Unknown
9:54 AM 75.0 °F - 64.9 °F 71% 29.89 in - Variable 3.5 mph - N/A   Unknown
10:54 AM 77.0 °F - 64.9 °F 66% 29.89 in - Variable 3.5 mph - N/A   Unknown
11:54 AM 80.1 °F 82.3 °F 66.9 °F 64% 29.88 in - NNW 4.6 mph - N/A   Unknown
12:54 PM 82.0 °F 84.1 °F 66.0 °F 58% 29.87 in - Variable 3.5 mph - N/A   Unknown
1:54 PM 82.0 °F 83.8 °F 64.9 °F 56% 29.87 in - Calm Calm - N/A   Unknown
2:54 PM 84.0 °F 85.4 °F 64.0 °F 51% 29.86 in - NNE 3.5 mph - N/A   Unknown
3:54 PM 82.9 °F 84.6 °F 64.9 °F 54% 29.86 in - Calm Calm - N/A   Unknown
4:54 PM 82.9 °F 84.4 °F 64.0 °F 53% 29.86 in - Calm Calm - N/A   Unknown
5:54 PM 80.1 °F 81.9 °F 64.9 °F 60% 29.87 in - North 3.5 mph - N/A   Unknown
6:54 PM 77.0 °F - 64.0 °F 64% 29.89 in - Calm Calm - N/A   Unknown
7:54 PM 73.0 °F - 64.9 °F 76% 29.91 in - Calm Calm - N/A   Unknown
8:54 PM 71.1 °F - 63.0 °F 75% 29.92 in - Calm Calm - N/A   Unknown
9:54 PM 68.0 °F - 62.1 °F 81% 29.94 in - Calm Calm - N/A   Unknown
10:54 PM 66.9 °F - 62.1 °F 84% 29.94 in - Calm Calm - N/A   Unknown
11:54 PM 66.0 °F - 62.1 °F 87% 29.94 in - Calm Calm - N/A   Unknown